Clarksville, TN

7:15 PM CST on February 25, 2017 (GMT -0600)
Outlaw

Weather History for KCKV - October, 2012

Change the Weather History Date:

Saturday, October 13, 2012

  Actual Average Record
Temperature  
Mean Temperature 65 °F 60 °F  
Max Temperature 79 °F 72 °F 90 °F (1963)
Min Temperature 50 °F 47 °F 28 °F (1977)
Degree Days  
Heating Degree Days 0 6  
Month to date heating degree days 115 61  
Since 1 July heating degree days 152 90  
Cooling Degree Days 0 1  
Month to date cooling degree days 0 19  
Year to date cooling degree days 1418  
Growing Degree Days 15 (Base 50)    
Moisture  
Dew Point 58 °F    
Average Humidity 80    
Maximum Humidity 100    
Minimum Humidity 60    
Precipitation  
Precipitation 0.00 in 0.13 in 3.57 in (2001)
Month to date precipitation 2.46 1.67  
Year to date precipitation 38.33  
Sea Level Pressure  
Sea Level Pressure 30.17 in    
Wind  
Wind Speed 8 mph (SSE)    
Max Wind Speed 18 mph    
Max Gust Speed 23 mph    
Visibility 6 miles    
Events      
T = Trace of Precipitation, MM = Missing Value Source: NWS Daily Summary

Daily Weather History Graph

Daily Weather History Graph

Search for Another Location

Airport or City:

Trip Planner

Search our weather history database for the weather conditions in past years. The results will help you decide how hot, cold, wet, or windy it might be!

Date:

Astronomy

Oct. 13, 2012 Rise Set
Actual Time 6:55 AM CDT 6:15 PM CDT
Civil Twilight 6:29 AM CDT 6:41 PM CDT
Nautical Twilight 5:59 AM CDT 7:11 PM CDT
Astronomical Twilight 5:29 AM CDT 7:41 PM CDT
Moon 4:47 AM CDT (10/13) 4:57 PM CDT (10/13)
Length of Visible Light 12h 11m
Length of Day
11h 19m
Waning Crescent, 5% of the Moon is Illuminated
Oct 13
Waning Crescent
Oct 15
New
Oct 21
First Quarter
Oct 29
Full
Nov 6
Last Quarter

Hourly Weather History & Observations

Time (CDT) Temp. Dew Point Humidity Pressure Visibility Wind Dir Wind Speed Gust Speed Precip Events Conditions
12:52 AM 51.1 °F 48.9 °F 92% 30.26 in 5.0 mi ESE 3.5 mph - N/A   Clear
3:36 AM 51.8 °F 50.0 °F 94% 30.24 in 5.0 mi SE 6.9 mph - N/A   Mostly Cloudy
3:45 AM 51.8 °F 51.8 °F 100% 30.23 in 3.0 mi SE 6.9 mph - N/A   Mostly Cloudy
5:52 AM 54.0 °F 53.1 °F 97% 30.22 in 1.0 mi SSE 4.6 mph - N/A   Mist
6:07 AM 53.6 °F 53.6 °F 100% 30.22 in 2.5 mi SSE 3.5 mph - N/A   Overcast
6:29 AM 55.4 °F 53.6 °F 94% 30.22 in 3.0 mi SE 3.5 mph - N/A   Overcast
6:38 AM 55.4 °F 53.6 °F 94% 30.22 in 2.5 mi SE 3.5 mph - N/A   Overcast
7:07 AM 55.4 °F 55.4 °F 100% 30.23 in 2.0 mi SSE 5.8 mph - N/A   Overcast
7:14 AM 55.4 °F 55.4 °F 100% 30.22 in 1.8 mi SE 5.8 mph - N/A   Overcast
7:52 AM 57.0 °F 55.9 °F 96% 30.23 in 1.2 mi SSE 4.6 mph - N/A   Overcast
9:03 AM 59.0 °F 57.2 °F 94% 30.23 in 1.2 mi South 6.9 mph - N/A   Overcast
9:52 AM 61.0 °F 60.1 °F 97% 30.22 in 8.0 mi SSE 8.1 mph - N/A   Overcast
10:52 AM 66.9 °F 62.1 °F 84% 30.21 in 10.0 mi South 4.6 mph - N/A   Mostly Cloudy
11:52 AM 73.9 °F 64.0 °F 71% 30.18 in 10.0 mi South 12.7 mph - N/A   Scattered Clouds
12:52 PM 78.1 °F 64.0 °F 62% 30.15 in 10.0 mi SSW 13.8 mph - N/A   Partly Cloudy
1:24 PM 78.8 °F 64.4 °F 61% 30.14 in 10.0 mi SSW 12.7 mph 19.6 mph N/A   Mostly Cloudy
1:52 PM 78.1 °F 64.0 °F 62% 30.12 in 10.0 mi South 12.7 mph - N/A   Mostly Cloudy
2:52 PM 79.0 °F 64.0 °F 60% 30.10 in 10.0 mi South 13.8 mph 20.7 mph N/A   Mostly Cloudy
3:52 PM 77.0 °F 63.0 °F 62% 30.09 in 10.0 mi South 10.4 mph - N/A   Scattered Clouds
4:52 PM 77.0 °F 63.0 °F 62% 30.07 in 10.0 mi South 10.4 mph 17.3 mph N/A   Mostly Cloudy
5:52 PM 75.9 °F 63.0 °F 64% 30.07 in 10.0 mi SSE 6.9 mph - N/A   Scattered Clouds
9:52 PM 69.1 °F 63.0 °F 81% 30.05 in 10.0 mi South 8.1 mph - N/A   Clear
10:52 PM 69.1 °F 62.1 °F 78% 30.04 in 10.0 mi South 8.1 mph - N/A   Scattered Clouds